Location: Kalberh�ni
(46.4610°N, 7.2453°E)
Time: 05:28:45
(UTC+00:00)

Cosmos 2333 Rocket - Pass Details

Date: 24 October 2021
Orbit: 837 x 865 km, 70.8° (Epoch: 05 December)

Event Time Altitude Azimuth Distance (km) Brightness Sun altitude
Rises 05:08:34 0° 327° (NNW) 3,445 5.0 -9.7°
Reaches altitude 10° 05:11:08 10° 321° (NW) 2,508 4.2 -9.2°
Maximum altitude 05:16:31 42° 252° (WSW) 1,211 2.6 -8.3°
Drops below altitude 10° 05:21:54 10° 183° (S) 2,498 4.7 -7.4°
Sets 05:24:27 0° 177° (S) 3,431 5.5 -7.0°
